Location: Bullenkuhlen
(53.7689°N, 9.7495°E)
Time: 22:02:37
(UTC+00:00)

ALOS 2 - Pass Details

Date: 09 April 2020
Orbit: 630 x 632 km, 97.9° (Epoch: 24 May)

Event Time Altitude Azimuth Distance (km) Brightness Sun altitude
Exits shadow 22:36:36 58° 348° (NNW) 742 3.1 -27.5°
Drops below altitude 10° 22:40:10 10° 346° (NNW) 2,029 6.2 -27.6°
Sets 22:42:23 0° 346° (NNW) 2,942 7.3 -27.6°
